Time,TemperatureF,DewpointF,PressureIn,WindDirection,WindDirectionDegrees,WindSpeedMPH,WindSpeedGustMPH,Humidity,HourlyPrecipIn,Conditions,Clouds,dailyrainin,SolarRadiationWatts/m^2,SoftwareType,DateUTC
2013-07-14 00:00:00,75.8,69.9,30.00,WNW,300,0.0,1.0,82,0.00,,,0.00,0.0,WeatherDisplay:10.37,2013-07-13 22:00:00,
2013-07-14 00:05:00,75.7,70.2,30.00,WNW,300,0.0,1.0,83,0.00,,,0.00,0.0,WeatherDisplay:10.37,2013-07-13 22:05:00,
2013-07-14 00:10:00,75.7,70.1,30.00,WNW,300,0.0,0.0,83,0.00,,,0.00,0.0,WeatherDisplay:10.37,2013-07-13 22:10:00,
2013-07-14 00:20:00,75.5,70.0,29.99,WNW,300,0.0,1.0,83,0.00,,,0.00,0.0,WeatherDisplay:10.37,2013-07-13 22:20:00,
2013-07-14 00:25:00,75.3,69.8,29.99,WNW,300,0.0,1.0,83,0.00,,,0.00,0.0,WeatherDisplay:10.37,2013-07-13 22:25:00,
2013-07-14 00:30:00,75.1,69.6,29.99,WNW,300,0.0,0.0,83,0.00,,,0.00,0.0,WeatherDisplay:10.37,2013-07-13 22:30:00,
2013-07-14 00:35:00,74.9,69.4,29.99,WNW,300,0.0,1.0,83,0.00,,,0.00,0.0,WeatherDisplay:10.37,2013-07-13 22:35:00,
2013-07-14 00:40:00,74.7,69.2,29.99,WNW,300,0.0,1.0,83,0.00,,,0.00,0.0,WeatherDisplay:10.37,2013-07-13 22:40:00,
2013-07-14 00:45:00,74.5,69.0,29.99,WNW,300,0.0,1.0,83,0.00,,,0.00,0.0,WeatherDisplay:10.37,2013-07-13 22:45:00,
2013-07-14 00:50:00,73.4,67.9,29.99,WNW,300,0.0,0.0,83,0.00,,,0.00,0.0,WeatherDisplay:10.37,2013-07-13 22:50:00,
2013-07-14 01:00:00,72.6,67.5,29.99,WNW,300,0.0,0.0,84,0.00,,,0.00,0.0,WeatherDisplay:10.37,2013-07-13 23:00:00,
2013-07-14 01:05:00,72.9,68.1,29.99,WNW,300,0.0,0.0,85,0.00,,,0.00,0.0,WeatherDisplay:10.37,2013-07-13 23:05:00,
2013-07-14 01:10:00,73.2,68.4,29.99,WNW,300,0.0,1.0,85,0.00,,,0.00,0.0,WeatherDisplay:10.37,2013-07-13 23:10:00,
2013-07-14 01:20:00,74.0,69.2,29.99,WNW,300,0.0,0.0,85,0.00,,,0.00,0.0,WeatherDisplay:10.37,2013-07-13 23:20:00,
2013-07-14 01:25:00,74.0,69.2,29.99,WNW,300,0.0,1.0,85,0.00,,,0.00,0.0,WeatherDisplay:10.37,2013-07-13 23:25:00,
2013-07-14 01:30:00,73.7,68.9,29.99,WNW,300,0.0,1.0,85,0.00,,,0.00,0.0,WeatherDisplay:10.37,2013-07-13 23:30:00,
2013-07-14 01:35:00,73.8,69.0,29.99,WNW,300,0.0,0.0,85,0.00,,,0.00,0.0,WeatherDisplay:10.37,2013-07-13 23:35:00,
2013-07-14 01:40:00,74.0,69.5,29.99,WNW,300,0.0,1.0,86,0.00,,,0.00,0.0,WeatherDisplay:10.37,2013-07-13 23:40:00,
2013-07-14 01:45:00,74.1,69.7,29.99,WNW,300,0.0,0.0,86,0.00,,,0.00,0.0,WeatherDisplay:10.37,2013-07-13 23:45:00,
2013-07-14 01:50:00,74.2,69.7,29.99,WNW,300,0.0,0.0,86,0.00,,,0.00,0.0,WeatherDisplay:10.37,2013-07-13 23:50:00,
2013-07-14 01:55:00,74.1,69.6,29.99,WNW,300,0.0,0.0,86,0.00,,,0.00,0.0,WeatherDisplay:10.37,2013-07-13 23:55:00,
2013-07-14 02:00:00,73.8,69.0,29.99,WNW,300,0.0,1.0,85,0.00,,,0.00,0.0,WeatherDisplay:10.37,2013-07-14 00:00:00,
2013-07-14 02:05:00,73.9,69.1,29.99,WNW,300,0.0,1.0,85,0.00,,,0.00,0.0,WeatherDisplay:10.37,2013-07-14 00:05:00,
2013-07-14 02:15:00,73.8,69.3,29.99,WNW,300,0.0,0.0,86,0.00,,,0.00,0.0,WeatherDisplay:10.37,2013-07-14 00:15:00,
2013-07-14 02:20:00,73.6,69.2,29.99,WNW,300,0.0,0.0,86,0.00,,,0.00,0.0,WeatherDisplay:10.37,2013-07-14 00:20:00,
2013-07-14 02:25:00,73.5,69.1,29.99,WNW,300,0.0,0.0,86,0.00,,,0.00,0.0,WeatherDisplay:10.37,2013-07-14 00:25:00,
2013-07-14 02:30:00,73.4,69.0,29.99,WNW,300,0.0,0.0,86,0.00,,,0.00,0.0,WeatherDisplay:10.37,2013-07-14 00:30:00,
2013-07-14 02:35:00,73.5,69.1,29.99,WNW,300,0.0,1.0,86,0.00,,,0.00,0.0,WeatherDisplay:10.37,2013-07-14 00:35:00,
2013-07-14 02:40:00,73.6,69.2,29.99,WNW,300,0.0,1.0,86,0.00,,,0.00,0.0,WeatherDisplay:10.37,2013-07-14 00:40:00,
2013-07-14 02:45:00,73.6,69.1,29.99,WNW,300,0.0,0.0,86,0.00,FEW,,0.00,0.0,WeatherDisplay:10.37,2013-07-14 00:45:00,
2013-07-14 02:50:00,73.8,69.7,29.99,WNW,300,0.0,0.0,87,0.00,FEW,,0.00,0.0,WeatherDisplay:10.37,2013-07-14 00:50:00,
2013-07-14 02:55:00,73.8,69.4,29.99,WNW,300,0.0,0.0,86,0.00,FEW,,0.00,0.0,WeatherDisplay:10.37,2013-07-14 00:55:00,
2013-07-14 03:00:00,73.9,69.4,29.99,WNW,300,1.0,3.0,86,0.00,FEW,,0.00,0.0,WeatherDisplay:10.37,2013-07-14 01:00:00,
2013-07-14 03:05:00,73.9,69.4,29.98,WNW,301,2.0,5.0,86,0.00,FEW,,0.00,0.0,WeatherDisplay:10.37,2013-07-14 01:05:00,
2013-07-14 03:10:00,74.0,69.5,29.98,NW,314,3.0,5.0,86,0.00,FEW,,0.00,0.0,WeatherDisplay:10.37,2013-07-14 01:10:00,
2013-07-14 03:20:00,74.1,69.6,29.99,NW,321,0.0,0.0,86,0.00,FEW,,0.00,0.0,WeatherDisplay:10.37,2013-07-14 01:20:00,
2013-07-14 03:25:00,74.1,69.6,29.99,NW,321,0.0,1.0,86,0.00,FEW,,0.00,0.0,WeatherDisplay:10.37,2013-07-14 01:25:00,
2013-07-14 03:30:00,74.1,69.6,29.99,NW,321,0.0,4.0,86,0.00,FEW,,0.00,0.0,WeatherDisplay:10.37,2013-07-14 01:30:00,
2013-07-14 03:35:00,74.0,69.5,29.99,NW,321,0.0,0.0,86,0.00,FEW,,0.00,0.0,WeatherDisplay:10.37,2013-07-14 01:35:00,
2013-07-14 03:40:00,73.9,69.4,29.99,NW,321,0.0,0.0,86,0.00,FEW,,0.00,0.0,WeatherDisplay:10.37,2013-07-14 01:40:00,
2013-07-14 03:45:00,73.9,69.4,29.99,NW,321,0.0,1.0,86,0.00,,,0.00,0.0,WeatherDisplay:10.37,2013-07-14 01:45:00,
2013-07-14 03:50:00,73.8,69.3,29.99,NW,321,0.0,0.0,86,0.00,,,0.00,0.0,WeatherDisplay:10.37,2013-07-14 01:50:00,
2013-07-14 03:55:00,73.5,69.1,29.99,NW,321,0.0,0.0,86,0.00,,,0.00,0.0,WeatherDisplay:10.37,2013-07-14 01:55:00,
2013-07-14 04:05:00,72.3,67.9,29.99,NW,321,0.0,1.0,86,0.00,,,0.00,0.0,WeatherDisplay:10.37,2013-07-14 02:05:00,
2013-07-14 04:10:00,71.8,67.7,29.99,NW,321,0.0,1.0,87,0.00,,,0.00,0.0,WeatherDisplay:10.37,2013-07-14 02:10:00,
2013-07-14 04:15:00,71.7,67.7,30.00,NW,321,0.0,0.0,87,0.00,,,0.00,0.0,WeatherDisplay:10.37,2013-07-14 02:15:00,
2013-07-14 04:20:00,72.0,67.9,30.00,NW,321,0.0,0.0,87,0.00,,,0.00,0.0,WeatherDisplay:10.37,2013-07-14 02:20:00,
2013-07-14 04:25:00,72.2,68.4,30.00,NW,321,0.0,0.0,88,0.00,,,0.00,0.0,WeatherDisplay:10.37,2013-07-14 02:25:00,
2013-07-14 04:30:00,72.3,68.2,30.00,NW,321,0.0,1.0,87,0.00,,,0.00,0.0,WeatherDisplay:10.37,2013-07-14 02:30:00,
2013-07-14 04:35:00,72.4,68.3,30.00,NW,321,0.0,0.0,87,0.00,,,0.00,0.0,WeatherDisplay:10.37,2013-07-14 02:35:00,
2013-07-14 04:40:00,72.4,68.3,29.99,NW,321,1.0,2.0,87,0.00,,,0.00,0.0,WeatherDisplay:10.37,2013-07-14 02:40:00,
2013-07-14 04:45:00,72.4,68.3,30.00,NW,321,0.0,2.0,87,0.00,,,0.00,0.0,WeatherDisplay:10.37,2013-07-14 02:45:00,
2013-07-14 04:50:00,72.5,68.4,30.00,NW,321,0.0,0.0,87,0.00,,,0.00,0.0,WeatherDisplay:10.37,2013-07-14 02:50:00,
2013-07-14 04:55:00,72.5,68.4,30.00,NW,321,0.0,0.0,87,0.00,,,0.00,0.0,WeatherDisplay:10.37,2013-07-14 02:55:00,
2013-07-14 05:00:00,72.5,68.4,29.99,NW,321,0.0,0.0,87,0.00,,,0.00,0.0,WeatherDisplay:10.37,2013-07-14 03:00:00,
2013-07-14 05:05:00,72.4,68.3,29.99,NW,321,0.0,0.0,87,0.00,FEW,,0.00,0.0,WeatherDisplay:10.37,2013-07-14 03:05:00,
2013-07-14 05:10:00,72.3,68.2,29.99,NW,321,0.0,0.0,87,0.00,FEW,,0.00,0.0,WeatherDisplay:10.37,2013-07-14 03:10:00,
2013-07-14 05:20:00,71.9,67.9,29.99,NW,321,0.0,0.0,87,0.00,FEW,,0.00,0.0,WeatherDisplay:10.37,2013-07-14 03:20:00,
2013-07-14 05:30:00,71.8,67.7,29.99,NW,321,0.0,0.0,87,0.00,FEW,,0.00,0.0,WeatherDisplay:10.37,2013-07-14 03:30:00,
2013-07-14 05:35:00,71.3,67.2,29.98,NW,321,0.0,0.0,87,0.00,FEW,,0.00,0.0,WeatherDisplay:10.37,2013-07-14 03:35:00,
2013-07-14 05:40:00,71.1,67.4,29.99,NW,321,0.0,0.0,88,0.00,FEW,,0.00,0.0,WeatherDisplay:10.37,2013-07-14 03:40:00,
2013-07-14 05:45:00,71.0,67.3,29.98,NW,321,0.0,0.0,88,0.00,OVC,,0.00,0.0,WeatherDisplay:10.37,2013-07-14 03:45:00,
2013-07-14 05:50:00,71.2,67.5,29.98,NW,321,0.0,0.0,88,0.00,OVC,,0.00,0.0,WeatherDisplay:10.37,2013-07-14 03:50:00,
2013-07-14 05:55:00,71.2,67.5,29.98,NW,321,0.0,0.0,88,0.00,OVC,,0.00,5.0,WeatherDisplay:10.37,2013-07-14 03:55:00,
2013-07-14 06:05:00,71.2,67.5,29.98,NW,318,0.0,0.0,88,0.00,OVC,,0.00,5.0,WeatherDisplay:10.37,2013-07-14 04:05:00,
2013-07-14 06:10:00,70.6,66.9,29.99,NW,320,0.0,0.0,88,0.00,BKN,,0.00,16.0,WeatherDisplay:10.37,2013-07-14 04:10:00,
2013-07-14 06:15:00,70.6,67.2,29.99,NW,321,0.0,0.0,89,0.00,BKN,,0.00,19.0,WeatherDisplay:10.37,2013-07-14 04:15:00,
2013-07-14 06:20:00,70.7,67.3,29.99,NW,321,0.0,0.0,89,0.00,BKN,,0.00,23.0,WeatherDisplay:10.37,2013-07-14 04:20:00,
2013-07-14 06:25:00,70.8,67.4,29.99,NW,321,0.0,0.0,89,0.00,BKN,,0.00,28.0,WeatherDisplay:10.37,2013-07-14 04:25:00,
2013-07-14 06:30:00,70.9,67.5,29.99,NW,321,0.0,0.0,89,0.00,BKN,,0.00,37.0,WeatherDisplay:10.37,2013-07-14 04:30:00,
2013-07-14 06:35:00,71.0,67.6,29.99,NW,321,0.0,0.0,89,0.00,BKN,,0.00,44.0,WeatherDisplay:10.37,2013-07-14 04:35:00,
2013-07-14 06:40:00,71.3,67.9,29.99,NW,321,0.0,0.0,89,0.00,BKN,,0.00,51.0,WeatherDisplay:10.37,2013-07-14 04:40:00,
2013-07-14 06:50:00,71.7,68.3,29.99,NW,321,0.0,0.0,89,0.00,BKN,,0.00,69.0,WeatherDisplay:10.37,2013-07-14 04:50:00,
2013-07-14 06:55:00,71.6,67.9,29.99,NW,321,0.0,0.0,88,0.00,BKN,,0.00,79.0,WeatherDisplay:10.37,2013-07-14 04:55:00,
2013-07-14 07:00:00,71.9,68.2,29.99,NW,321,0.0,0.0,88,0.00,BKN,,0.00,91.0,WeatherDisplay:10.37,2013-07-14 05:00:00,
2013-07-14 07:05:00,72.4,68.6,29.98,NW,321,0.0,0.0,88,0.00,BKN,,0.00,105.0,WeatherDisplay:10.37,2013-07-14 05:05:00,
2013-07-14 07:10:00,72.7,68.9,29.98,NW,321,0.0,0.0,88,0.00,BKN,,0.00,116.0,WeatherDisplay:10.37,2013-07-14 05:10:00,
2013-07-14 07:20:00,73.3,68.8,29.98,NW,321,0.0,0.0,86,0.00,BKN,,0.00,146.0,WeatherDisplay:10.37,2013-07-14 05:20:00,
2013-07-14 07:25:00,73.2,68.8,29.98,NW,321,0.0,0.0,86,0.00,BKN,,0.00,158.0,WeatherDisplay:10.37,2013-07-14 05:25:00,
2013-07-14 07:30:00,73.3,68.9,29.99,NW,322,2.0,5.0,86,0.00,BKN,,0.00,171.0,WeatherDisplay:10.37,2013-07-14 05:30:00,
2013-07-14 07:35:00,73.2,68.4,29.98,NW,325,1.0,5.0,85,0.00,BKN,,0.00,185.0,WeatherDisplay:10.37,2013-07-14 05:35:00,
2013-07-14 07:40:00,73.1,68.0,29.98,NNW,339,3.0,5.0,84,0.00,BKN,,0.00,199.0,WeatherDisplay:10.37,2013-07-14 05:40:00,
2013-07-14 07:45:00,73.3,67.8,29.98,North,354,0.0,5.0,83,0.00,BKN,,0.00,214.0,WeatherDisplay:10.37,2013-07-14 05:45:00,
2013-07-14 07:50:00,73.5,67.7,29.98,North,10,3.0,5.0,82,0.00,BKN,,0.00,229.0,WeatherDisplay:10.37,2013-07-14 05:50:00,
2013-07-14 07:55:00,73.5,67.6,29.98,NNE,22,0.0,5.0,82,0.00,BKN,,0.00,244.0,WeatherDisplay:10.37,2013-07-14 05:55:00,
2013-07-14 08:00:00,73.6,67.4,29.98,NNE,29,0.0,4.0,81,0.00,BKN,,0.00,262.0,WeatherDisplay:10.37,2013-07-14 06:00:00,
2013-07-14 08:05:00,73.7,67.5,29.97,NNE,32,0.0,4.0,81,0.00,BKN,,0.00,276.0,WeatherDisplay:10.37,2013-07-14 06:05:00,
2013-07-14 08:10:00,74.1,68.2,29.98,NNE,33,0.0,1.0,82,0.00,BKN,,0.00,294.0,WeatherDisplay:10.37,2013-07-14 06:10:00,
2013-07-14 08:15:00,74.6,68.4,29.98,NNE,33,0.0,0.0,81,0.00,SCT,,0.00,309.0,WeatherDisplay:10.37,2013-07-14 06:15:00,
2013-07-14 08:20:00,75.4,68.8,29.98,NNE,33,0.0,0.0,80,0.00,SCT,,0.00,322.0,WeatherDisplay:10.37,2013-07-14 06:20:00,
2013-07-14 08:25:00,75.9,68.9,29.98,NNE,33,0.0,1.0,79,0.00,SCT,,0.00,336.0,WeatherDisplay:10.37,2013-07-14 06:25:00,
2013-07-14 08:30:00,76.4,69.0,29.98,NNE,33,0.0,0.0,78,0.00,SCT,,0.00,352.0,WeatherDisplay:10.37,2013-07-14 06:30:00,
2013-07-14 08:35:00,76.7,68.9,29.98,NNE,32,0.0,1.0,77,0.00,SCT,,0.00,367.0,WeatherDisplay:10.37,2013-07-14 06:35:00,
2013-07-14 08:40:00,76.9,68.3,29.98,NNE,32,0.0,2.0,75,0.00,SCT,,0.00,383.0,WeatherDisplay:10.37,2013-07-14 06:40:00,
2013-07-14 08:45:00,77.5,68.9,29.98,NNE,32,0.0,2.0,75,0.00,SCT,,0.00,399.0,WeatherDisplay:10.37,2013-07-14 06:45:00,
2013-07-14 08:50:00,77.6,68.3,29.98,NNE,17,0.0,5.0,73,0.00,SCT,,0.00,413.0,WeatherDisplay:10.37,2013-07-14 06:50:00,
2013-07-14 08:55:00,77.4,67.7,29.98,NNE,16,0.0,3.0,72,0.00,SCT,,0.00,429.0,WeatherDisplay:10.37,2013-07-14 06:55:00,
2013-07-14 09:00:00,77.8,68.1,29.98,NNE,12,0.0,3.0,72,0.00,SCT,,0.00,441.0,WeatherDisplay:10.37,2013-07-14 07:00:00,
2013-07-14 09:05:00,78.1,67.9,29.98,North,6,2.0,4.0,71,0.00,SCT,,0.00,454.0,WeatherDisplay:10.37,2013-07-14 07:05:00,
2013-07-14 09:10:00,77.8,67.7,29.98,North,351,1.0,5.0,71,0.00,SCT,,0.00,464.0,WeatherDisplay:10.37,2013-07-14 07:10:00,
2013-07-14 09:15:00,78.3,67.7,29.98,NNW,336,1.0,6.0,70,0.00,SCT,,0.00,480.0,WeatherDisplay:10.37,2013-07-14 07:15:00,
2013-07-14 09:20:00,79.1,68.1,29.98,NNW,337,1.0,7.0,69,0.00,SCT,,0.00,497.0,WeatherDisplay:10.37,2013-07-14 07:20:00,
2013-07-14 09:30:00,79.1,67.6,29.98,NW,322,2.0,8.0,68,0.00,SCT,,0.00,522.0,WeatherDisplay:10.37,2013-07-14 07:30:00,
2013-07-14 09:35:00,79.1,67.6,29.98,NW,310,0.0,6.0,68,0.00,SCT,,0.00,531.0,WeatherDisplay:10.37,2013-07-14 07:35:00,
2013-07-14 09:40:00,79.5,67.2,29.98,North,349,3.0,8.0,66,0.00,SCT,,0.00,548.0,WeatherDisplay:10.37,2013-07-14 07:40:00,
2013-07-14 09:50:00,79.0,67.6,29.97,North,1,2.0,7.0,68,0.00,SCT,,0.00,577.0,WeatherDisplay:10.37,2013-07-14 07:50:00,
2013-07-14 09:55:00,79.6,66.8,29.97,North,355,5.0,7.0,65,0.00,SCT,,0.00,592.0,WeatherDisplay:10.37,2013-07-14 07:55:00,
2013-07-14 10:00:00,80.0,67.2,29.98,North,359,5.0,7.0,65,0.00,SCT,,0.00,599.0,WeatherDisplay:10.37,2013-07-14 08:00:00,
2013-07-14 10:05:00,80.7,66.9,29.98,North,350,6.0,10.0,63,0.00,SCT,,0.00,617.0,WeatherDisplay:10.37,2013-07-14 08:05:00,
2013-07-14 10:10:00,80.9,67.1,29.98,NNW,338,6.0,12.0,63,0.00,SCT,,0.00,628.0,WeatherDisplay:10.37,2013-07-14 08:10:00,
2013-07-14 10:15:00,80.8,67.5,29.98,NNW,340,2.0,8.0,64,0.00,SCT,,0.00,628.0,WeatherDisplay:10.37,2013-07-14 08:15:00,
2013-07-14 10:20:00,81.4,67.2,29.97,NNW,327,3.0,8.0,62,0.00,SCT,,0.00,647.0,WeatherDisplay:10.37,2013-07-14 08:20:00,
2013-07-14 10:25:00,81.6,67.4,29.97,NW,307,0.0,8.0,62,0.00,SCT,,0.00,659.0,WeatherDisplay:10.37,2013-07-14 08:25:00,
2013-07-14 10:30:00,82.9,68.1,29.97,NW,314,0.0,1.0,61,0.00,SCT,,0.00,671.0,WeatherDisplay:10.37,2013-07-14 08:30:00,
2013-07-14 10:40:00,82.4,67.1,29.98,NNE,13,6.0,8.0,60,0.00,SCT,,0.00,687.0,WeatherDisplay:10.37,2013-07-14 08:40:00,
2013-07-14 10:45:00,81.4,66.7,29.98,North,3,6.0,10.0,61,0.00,SCT,,0.00,696.0,WeatherDisplay:10.37,2013-07-14 08:45:00,
2013-07-14 10:50:00,82.5,66.7,29.98,NNW,344,0.0,5.0,59,0.00,SCT,,0.00,705.0,WeatherDisplay:10.37,2013-07-14 08:50:00,
2013-07-14 10:55:00,82.9,66.6,29.97,NNW,327,1.0,3.0,58,0.00,SCT,,0.00,724.0,WeatherDisplay:10.37,2013-07-14 08:55:00,
2013-07-14 11:00:00,83.3,66.0,29.97,NW,305,5.0,6.0,56,0.00,SCT,,0.00,731.0,WeatherDisplay:10.37,2013-07-14 09:00:00,
2013-07-14 11:05:00,82.8,66.5,29.97,WNW,294,1.0,6.0,58,0.00,SCT,,0.00,738.0,WeatherDisplay:10.37,2013-07-14 09:05:00,
2013-07-14 11:10:00,83.4,66.6,29.97,NNW,327,2.0,7.0,57,0.00,SCT,,0.00,752.0,WeatherDisplay:10.37,2013-07-14 09:10:00,
2013-07-14 11:15:00,82.8,66.5,29.97,North,360,0.0,4.0,58,0.00,SCT,,0.00,752.0,WeatherDisplay:10.37,2013-07-14 09:15:00,
2013-07-14 11:20:00,83.3,66.0,29.97,North,358,0.0,3.0,56,0.00,SCT,,0.00,752.0,WeatherDisplay:10.37,2013-07-14 09:20:00,
2013-07-14 11:25:00,84.0,65.0,29.97,North,358,2.0,5.0,53,0.00,SCT,,0.00,772.0,WeatherDisplay:10.37,2013-07-14 09:25:00,
2013-07-14 11:30:00,83.4,65.0,29.98,North,360,0.0,6.0,54,0.00,SCT,,0.00,780.0,WeatherDisplay:10.37,2013-07-14 09:30:00,
2013-07-14 11:35:00,83.8,64.8,29.98,NNW,342,0.0,5.0,53,0.00,SCT,,0.00,786.0,WeatherDisplay:10.37,2013-07-14 09:35:00,
2013-07-14 11:40:00,84.3,65.8,29.98,West,281,1.0,7.0,54,0.00,SCT,,0.00,788.0,WeatherDisplay:10.37,2013-07-14 09:40:00,
2013-07-14 11:45:00,85.0,65.9,29.98,West,274,0.0,2.0,53,0.00,SCT,,0.00,789.0,WeatherDisplay:10.37,2013-07-14 09:45:00,
2013-07-14 11:50:00,85.8,66.7,29.98,WNW,298,2.0,8.0,53,0.00,SCT,,0.00,796.0,WeatherDisplay:10.37,2013-07-14 09:50:00,
2013-07-14 11:55:00,84.6,65.1,29.98,North,353,6.0,8.0,52,0.00,FEW,,0.00,805.0,WeatherDisplay:10.37,2013-07-14 09:55:00,
2013-07-14 12:00:00,83.6,65.2,29.98,North,10,2.0,7.0,54,0.00,FEW,,0.00,814.0,WeatherDisplay:10.37,2013-07-14 10:00:00,
2013-07-14 12:05:00,83.7,65.8,29.98,NNE,19,0.0,7.0,55,0.00,FEW,,0.00,816.0,WeatherDisplay:10.37,2013-07-14 10:05:00,
2013-07-14 12:10:00,84.6,66.7,29.98,North,9,1.0,7.0,55,0.00,FEW,,0.00,830.0,WeatherDisplay:10.37,2013-07-14 10:10:00,
2013-07-14 12:15:00,84.8,66.3,29.97,NNE,20,0.0,5.0,54,0.00,FEW,,0.00,867.0,WeatherDisplay:10.37,2013-07-14 10:15:00,
2013-07-14 12:20:00,85.1,66.0,29.98,NW,314,5.0,10.0,53,0.00,SCT,,0.00,814.0,WeatherDisplay:10.37,2013-07-14 10:20:00,
2013-07-14 12:25:00,85.4,65.7,29.98,NW,307,6.0,8.0,52,0.00,SCT,,0.00,831.0,WeatherDisplay:10.37,2013-07-14 10:25:00,
2013-07-14 12:30:00,85.7,65.4,29.98,NNW,329,2.0,9.0,51,0.00,FEW,,0.00,854.0,WeatherDisplay:10.37,2013-07-14 10:30:00,
2013-07-14 12:35:00,84.9,65.8,29.98,NNE,20,1.0,7.0,53,0.00,FEW,,0.00,849.0,WeatherDisplay:10.37,2013-07-14 10:35:00,
2013-07-14 12:40:00,85.5,65.9,29.97,NNE,16,1.0,6.0,52,0.00,FEW,,0.00,863.0,WeatherDisplay:10.37,2013-07-14 10:40:00,
2013-07-14 12:45:00,87.2,66.3,29.98,NW,317,0.0,4.0,50,0.00,FEW,,0.00,881.0,WeatherDisplay:10.37,2013-07-14 10:45:00,
2013-07-14 12:50:00,86.6,66.3,29.98,North,9,0.0,2.0,51,0.00,FEW,,0.00,900.0,WeatherDisplay:10.37,2013-07-14 10:50:00,
2013-07-14 12:55:00,87.3,66.4,29.97,North,355,1.0,6.0,50,0.00,SCT,,0.00,248.0,WeatherDisplay:10.37,2013-07-14 10:55:00,
2013-07-14 13:05:00,86.9,65.5,29.97,NNW,338,3.0,9.0,49,0.00,FEW,,0.00,886.0,WeatherDisplay:10.37,2013-07-14 11:05:00,
2013-07-14 13:10:00,87.1,67.3,29.97,NW,319,3.0,10.0,52,0.00,FEW,,0.00,884.0,WeatherDisplay:10.37,2013-07-14 11:10:00,
2013-07-14 13:15:00,86.5,66.8,29.97,NW,316,1.0,7.0,52,0.00,FEW,,0.00,928.0,WeatherDisplay:10.37,2013-07-14 11:15:00,
2013-07-14 13:20:00,87.3,69.2,29.97,NW,322,7.0,12.0,55,0.00,FEW,,0.00,886.0,WeatherDisplay:10.37,2013-07-14 11:20:00,
2013-07-14 13:25:00,86.4,68.4,29.97,NW,310,5.0,12.0,55,0.00,FEW,,0.00,905.0,WeatherDisplay:10.37,2013-07-14 11:25:00,
2013-07-14 13:30:00,86.2,69.2,29.97,NW,306,5.0,9.0,57,0.00,FEW,,0.00,914.0,WeatherDisplay:10.37,2013-07-14 11:30:00,
2013-07-14 13:35:00,86.8,69.2,29.97,NW,319,1.0,9.0,56,0.00,FEW,,0.00,921.0,WeatherDisplay:10.37,2013-07-14 11:35:00,
2013-07-14 13:40:00,87.0,69.4,29.97,NW,313,2.0,12.0,56,0.00,FEW,,0.00,953.0,WeatherDisplay:10.37,2013-07-14 11:40:00,
2013-07-14 13:45:00,86.7,68.6,29.96,WNW,301,0.0,9.0,55,0.00,FEW,,0.00,916.0,WeatherDisplay:10.37,2013-07-14 11:45:00,
2013-07-14 13:50:00,86.2,69.7,29.96,West,281,5.0,15.0,58,0.00,FEW,,0.00,928.0,WeatherDisplay:10.37,2013-07-14 11:50:00,
2013-07-14 13:55:00,86.3,69.8,29.96,WNW,288,6.0,12.0,58,0.00,FEW,,0.00,969.0,WeatherDisplay:10.37,2013-07-14 11:55:00,
2013-07-14 14:05:00,86.0,70.0,29.96,West,279,7.0,12.0,59,0.00,FEW,,0.00,923.0,WeatherDisplay:10.37,2013-07-14 12:05:00,
2013-07-14 14:10:00,86.1,69.6,29.96,WNW,285,5.0,12.0,58,0.00,FEW,,0.00,860.0,WeatherDisplay:10.37,2013-07-14 12:10:00,
2013-07-14 14:15:00,85.8,68.8,29.96,WNW,295,10.0,16.0,57,0.00,FEW,,0.00,877.0,WeatherDisplay:10.37,2013-07-14 12:15:00,
2013-07-14 14:20:00,84.7,68.8,29.96,West,279,13.0,17.0,59,0.00,FEW,,0.00,865.0,WeatherDisplay:10.37,2013-07-14 12:20:00,
2013-07-14 14:25:00,85.2,68.8,29.96,West,268,9.0,15.0,58,0.00,FEW,,0.00,846.0,WeatherDisplay:10.37,2013-07-14 12:25:00,
2013-07-14 14:30:00,85.2,68.2,29.96,West,274,6.0,20.0,57,0.00,FEW,,0.00,830.0,WeatherDisplay:10.37,2013-07-14 12:30:00,
2013-07-14 14:40:00,85.7,67.1,29.96,WNW,290,7.0,15.0,54,0.00,CLR,,0.00,828.0,WeatherDisplay:10.37,2013-07-14 12:40:00,
2013-07-14 14:45:00,85.8,65.6,29.96,WNW,286,10.0,17.0,51,0.00,CLR,,0.00,817.0,WeatherDisplay:10.37,2013-07-14 12:45:00,
2013-07-14 14:55:00,86.3,66.0,29.95,WNW,287,5.0,13.0,51,0.00,CLR,,0.00,803.0,WeatherDisplay:10.37,2013-07-14 12:55:00,
2013-07-14 15:00:00,86.1,66.4,29.95,WNW,288,3.0,14.0,52,0.00,CLR,,0.00,802.0,WeatherDisplay:10.37,2013-07-14 13:00:00,
2013-07-14 15:05:00,86.6,66.9,29.95,WNW,288,5.0,13.0,52,0.00,CLR,,0.00,793.0,WeatherDisplay:10.37,2013-07-14 13:05:00,
2013-07-14 15:10:00,87.0,66.7,29.95,WNW,293,6.0,9.0,51,0.00,CLR,,0.00,791.0,WeatherDisplay:10.37,2013-07-14 13:10:00,
2013-07-14 15:15:00,86.6,66.9,29.95,WNW,289,7.0,13.0,52,0.00,CLR,,0.00,786.0,WeatherDisplay:10.37,2013-07-14 13:15:00,
2013-07-14 15:20:00,86.3,67.2,29.95,WNW,295,6.0,12.0,53,0.00,CLR,,0.00,775.0,WeatherDisplay:10.37,2013-07-14 13:20:00,
2013-07-14 15:25:00,87.1,67.4,29.95,NW,306,6.0,13.0,52,0.00,CLR,,0.00,768.0,WeatherDisplay:10.37,2013-07-14 13:25:00,
2013-07-14 15:30:00,86.6,66.9,29.95,WNW,293,8.0,12.0,52,0.00,CLR,,0.00,761.0,WeatherDisplay:10.37,2013-07-14 13:30:00,
2013-07-14 15:35:00,86.7,67.0,29.95,West,281,3.0,14.0,52,0.00,CLR,,0.00,751.0,WeatherDisplay:10.37,2013-07-14 13:35:00,
2013-07-14 15:40:00,85.9,66.8,29.95,WSW,258,12.0,16.0,53,0.00,CLR,,0.00,744.0,WeatherDisplay:10.37,2013-07-14 13:40:00,
2013-07-14 15:45:00,85.7,67.2,29.95,West,264,7.0,14.0,54,0.00,CLR,,0.00,735.0,WeatherDisplay:10.37,2013-07-14 13:45:00,
2013-07-14 15:50:00,85.6,67.1,29.95,WNW,288,9.0,17.0,54,0.00,CLR,,0.00,721.0,WeatherDisplay:10.37,2013-07-14 13:50:00,
2013-07-14 15:55:00,85.5,67.0,29.95,West,275,6.0,15.0,54,0.00,CLR,,0.00,715.0,WeatherDisplay:10.37,2013-07-14 13:55:00,
2013-07-14 16:00:00,85.7,67.7,29.95,West,262,7.0,15.0,55,0.00,CLR,,0.00,700.0,WeatherDisplay:10.37,2013-07-14 14:00:00,
2013-07-14 16:05:00,85.3,67.8,29.95,West,259,8.0,17.0,56,0.00,CLR,,0.00,693.0,WeatherDisplay:10.37,2013-07-14 14:05:00,
2013-07-14 16:10:00,85.5,67.5,29.94,West,266,8.0,14.0,55,0.00,CLR,,0.00,682.0,WeatherDisplay:10.37,2013-07-14 14:10:00,
2013-07-14 16:15:00,85.6,67.0,29.94,West,266,7.0,15.0,54,0.00,CLR,,0.00,675.0,WeatherDisplay:10.37,2013-07-14 14:15:00,
2013-07-14 16:25:00,85.3,66.8,29.94,West,277,9.0,18.0,54,0.00,CLR,,0.00,645.0,WeatherDisplay:10.37,2013-07-14 14:25:00,
2013-07-14 16:35:00,85.2,67.2,29.94,West,264,7.0,15.0,55,0.00,CLR,,0.00,626.0,WeatherDisplay:10.37,2013-07-14 14:35:00,
2013-07-14 16:40:00,85.4,67.4,29.94,West,268,6.0,16.0,55,0.00,CLR,,0.00,613.0,WeatherDisplay:10.37,2013-07-14 14:40:00,
2013-07-14 16:45:00,85.6,67.0,29.94,West,266,13.0,17.0,54,0.00,CLR,,0.00,601.0,WeatherDisplay:10.37,2013-07-14 14:45:00,
2013-07-14 16:50:00,85.2,67.2,29.94,WNW,282,15.0,22.0,55,0.00,CLR,,0.00,592.0,WeatherDisplay:10.37,2013-07-14 14:50:00,
2013-07-14 16:55:00,85.1,67.1,29.94,WNW,282,12.0,20.0,55,0.00,CLR,,0.00,584.0,WeatherDisplay:10.37,2013-07-14 14:55:00,
2013-07-14 17:00:00,85.0,67.0,29.94,West,281,12.0,18.0,55,0.00,CLR,,0.00,566.0,WeatherDisplay:10.37,2013-07-14 15:00:00,
2013-07-14 17:05:00,84.8,66.9,29.95,WNW,289,13.0,20.0,55,0.00,CLR,,0.00,548.0,WeatherDisplay:10.37,2013-07-14 15:05:00,
2013-07-14 17:10:00,84.6,67.7,29.94,WNW,302,7.0,18.0,57,0.00,CLR,,0.00,531.0,WeatherDisplay:10.37,2013-07-14 15:10:00,
2013-07-14 17:15:00,84.9,67.4,29.94,WNW,302,8.0,21.0,56,0.00,CLR,,0.00,517.0,WeatherDisplay:10.37,2013-07-14 15:15:00,
2013-07-14 17:20:00,85.0,67.5,29.94,WNW,301,6.0,19.0,56,0.00,CLR,,0.00,506.0,WeatherDisplay:10.37,2013-07-14 15:20:00,
2013-07-14 17:25:00,84.9,67.5,29.94,WNW,301,9.0,20.0,56,0.00,CLR,,0.00,497.0,WeatherDisplay:10.37,2013-07-14 15:25:00,
2013-07-14 17:30:00,85.1,67.6,29.94,WNW,302,9.0,17.0,56,0.00,CLR,,0.00,475.0,WeatherDisplay:10.37,2013-07-14 15:30:00,
2013-07-14 17:35:00,85.3,67.3,29.94,WNW,297,7.0,13.0,55,0.00,CLR,,0.00,462.0,WeatherDisplay:10.37,2013-07-14 15:35:00,
2013-07-14 17:40:00,84.7,67.3,29.94,WNW,287,10.0,18.0,56,0.00,CLR,,0.00,441.0,WeatherDisplay:10.37,2013-07-14 15:40:00,
2013-07-14 17:50:00,84.9,66.9,29.94,West,280,10.0,15.0,55,0.00,CLR,,0.00,385.0,WeatherDisplay:10.37,2013-07-14 15:50:00,
2013-07-14 17:55:00,84.5,66.6,29.94,West,273,8.0,16.0,55,0.00,CLR,,0.00,383.0,WeatherDisplay:10.37,2013-07-14 15:55:00,
2013-07-14 18:00:00,84.3,66.4,29.93,West,280,12.0,18.0,55,0.00,CLR,,0.00,366.0,WeatherDisplay:10.37,2013-07-14 16:00:00,
2013-07-14 18:05:00,84.1,66.7,29.94,WNW,292,8.0,17.0,56,0.00,SCT,,0.00,359.0,WeatherDisplay:10.37,2013-07-14 16:05:00,
2013-07-14 18:10:00,84.7,66.8,29.94,WNW,300,7.0,12.0,55,0.00,SCT,,0.00,334.0,WeatherDisplay:10.37,2013-07-14 16:10:00,
2013-07-14 18:15:00,84.4,66.4,29.94,WNW,288,9.0,17.0,55,0.00,SCT,,0.00,329.0,WeatherDisplay:10.37,2013-07-14 16:15:00,
2013-07-14 18:20:00,84.4,66.5,29.94,West,280,9.0,18.0,55,0.00,SCT,,0.00,332.0,WeatherDisplay:10.37,2013-07-14 16:20:00,
2013-07-14 18:25:00,84.4,66.5,29.93,West,275,9.0,16.0,55,0.00,SCT,,0.00,306.0,WeatherDisplay:10.37,2013-07-14 16:25:00,
2013-07-14 18:30:00,84.4,66.5,29.93,West,274,7.0,15.0,55,0.00,SCT,,0.00,294.0,WeatherDisplay:10.37,2013-07-14 16:30:00,
2013-07-14 18:35:00,84.7,66.7,29.93,West,279,6.0,16.0,55,0.00,SCT,,0.00,308.0,WeatherDisplay:10.37,2013-07-14 16:35:00,
2013-07-14 18:40:00,84.9,66.4,29.93,WNW,285,5.0,16.0,54,0.00,SCT,,0.00,290.0,WeatherDisplay:10.37,2013-07-14 16:40:00,
2013-07-14 18:45:00,85.2,66.2,29.93,WNW,290,6.0,17.0,53,0.00,SCT,,0.00,237.0,WeatherDisplay:10.37,2013-07-14 16:45:00,
2013-07-14 18:50:00,85.3,66.2,29.93,WNW,298,5.0,17.0,53,0.00,SCT,,0.00,193.0,WeatherDisplay:10.37,2013-07-14 16:50:00,
2013-07-14 18:55:00,85.2,66.1,29.93,WNW,296,7.0,13.0,53,0.00,SCT,,0.00,151.0,WeatherDisplay:10.37,2013-07-14 16:55:00,
2013-07-14 19:00:00,84.8,66.3,29.93,WNW,294,9.0,15.0,54,0.00,SCT,,0.00,102.0,WeatherDisplay:10.37,2013-07-14 17:00:00,
2013-07-14 19:05:00,84.6,67.2,29.93,West,281,7.0,14.0,56,0.00,CLR,,0.00,67.0,WeatherDisplay:10.37,2013-07-14 17:05:00,
2013-07-14 19:10:00,84.4,67.0,29.93,WNW,282,6.0,12.0,56,0.00,CLR,,0.00,72.0,WeatherDisplay:10.37,2013-07-14 17:10:00,
2013-07-14 19:15:00,84.2,67.3,29.93,WNW,291,7.0,12.0,57,0.00,CLR,,0.00,86.0,WeatherDisplay:10.37,2013-07-14 17:15:00,
2013-07-14 19:20:00,84.1,67.2,29.93,WNW,284,6.0,10.0,57,0.00,CLR,,0.00,118.0,WeatherDisplay:10.37,2013-07-14 17:20:00,
2013-07-14 19:25:00,84.0,67.1,29.93,WNW,292,5.0,10.0,57,0.00,CLR,,0.00,109.0,WeatherDisplay:10.37,2013-07-14 17:25:00,
2013-07-14 19:30:00,83.8,67.0,29.94,WNW,293,7.0,14.0,57,0.00,CLR,,0.00,146.0,WeatherDisplay:10.37,2013-07-14 17:30:00,
2013-07-14 19:35:00,83.7,66.8,29.94,WNW,295,8.0,12.0,57,0.00,CLR,,0.00,142.0,WeatherDisplay:10.37,2013-07-14 17:35:00,
2013-07-14 19:40:00,83.6,66.8,29.94,WNW,294,7.0,12.0,57,0.00,CLR,,0.00,141.0,WeatherDisplay:10.37,2013-07-14 17:40:00,
2013-07-14 19:45:00,83.6,66.8,29.94,WNW,289,7.0,12.0,57,0.00,CLR,,0.00,123.0,WeatherDisplay:10.37,2013-07-14 17:45:00,
2013-07-14 19:50:00,83.5,66.7,29.94,West,280,7.0,12.0,57,0.00,OVC,,0.00,98.0,WeatherDisplay:10.37,2013-07-14 17:50:00,
2013-07-14 19:55:00,83.4,66.6,29.94,West,280,6.0,12.0,57,0.00,OVC,,0.00,72.0,WeatherDisplay:10.37,2013-07-14 17:55:00,
2013-07-14 20:00:00,83.2,66.4,29.94,WNW,284,2.0,12.0,57,0.00,OVC,,0.00,58.0,WeatherDisplay:10.37,2013-07-14 18:00:00,
2013-07-14 20:05:00,83.1,66.3,29.94,WNW,285,3.0,12.0,57,0.00,OVC,,0.00,47.0,WeatherDisplay:10.37,2013-07-14 18:05:00,
2013-07-14 20:10:00,82.9,66.6,29.94,West,280,6.0,10.0,58,0.00,OVC,,0.00,40.0,WeatherDisplay:10.37,2013-07-14 18:10:00,
2013-07-14 20:15:00,82.6,66.4,29.94,West,276,8.0,12.0,58,0.00,OVC,,0.00,32.0,WeatherDisplay:10.37,2013-07-14 18:15:00,
2013-07-14 20:20:00,82.1,66.4,29.94,West,278,5.0,12.0,59,0.00,OVC,,0.00,25.0,WeatherDisplay:10.37,2013-07-14 18:20:00,
2013-07-14 20:25:00,81.6,65.9,29.94,West,280,10.0,13.0,59,0.00,OVC,,0.00,19.0,WeatherDisplay:10.37,2013-07-14 18:25:00,
2013-07-14 20:35:00,80.5,66.2,29.94,WNW,291,10.0,13.0,62,0.00,OVC,,0.00,11.0,WeatherDisplay:10.37,2013-07-14 18:35:00,
2013-07-14 20:40:00,79.9,66.6,29.94,WNW,286,7.0,15.0,64,0.00,OVC,,0.00,5.0,WeatherDisplay:10.37,2013-07-14 18:40:00,
2013-07-14 20:45:00,79.5,66.7,29.94,WNW,283,7.0,12.0,65,0.00,OVC,,0.00,0.0,WeatherDisplay:10.37,2013-07-14 18:45:00,
2013-07-14 20:50:00,79.2,67.3,29.94,WNW,287,6.0,12.0,67,0.00,OVC,,0.00,0.0,WeatherDisplay:10.37,2013-07-14 18:50:00,
2013-07-14 20:55:00,79.0,67.6,29.94,WNW,282,7.0,12.0,68,0.00,OVC,,0.00,0.0,WeatherDisplay:10.37,2013-07-14 18:55:00,
2013-07-14 21:00:00,78.8,67.8,29.94,WNW,282,6.0,12.0,69,0.00,,,0.00,0.0,WeatherDisplay:10.37,2013-07-14 19:00:00,
2013-07-14 21:05:00,78.6,67.6,29.95,WNW,282,6.0,12.0,69,0.00,,,0.00,0.0,WeatherDisplay:10.37,2013-07-14 19:05:00,
2013-07-14 21:10:00,78.4,67.8,29.95,WNW,282,6.0,12.0,70,0.00,,,0.00,0.0,WeatherDisplay:10.37,2013-07-14 19:10:00,
2013-07-14 21:15:00,78.3,67.7,29.95,WNW,283,6.0,10.0,70,0.00,,,0.00,0.0,WeatherDisplay:10.37,2013-07-14 19:15:00,
2013-07-14 21:25:00,78.0,68.2,29.95,West,280,7.0,10.0,72,0.00,,,0.00,0.0,WeatherDisplay:10.37,2013-07-14 19:25:00,
2013-07-14 21:30:00,77.8,68.0,29.95,WNW,283,6.0,10.0,72,0.00,,,0.00,0.0,WeatherDisplay:10.37,2013-07-14 19:30:00,
2013-07-14 21:35:00,77.7,68.4,29.96,WNW,287,5.0,12.0,73,0.00,,,0.00,0.0,WeatherDisplay:10.37,2013-07-14 19:35:00,
2013-07-14 21:40:00,77.7,68.4,29.96,WNW,285,2.0,6.0,73,0.00,,,0.00,0.0,WeatherDisplay:10.37,2013-07-14 19:40:00,
2013-07-14 21:45:00,77.6,68.7,29.96,West,278,5.0,10.0,74,0.00,,,0.00,0.0,WeatherDisplay:10.37,2013-07-14 19:45:00,
2013-07-14 21:50:00,77.4,68.5,29.96,WNW,284,3.0,10.0,74,0.00,,,0.00,0.0,WeatherDisplay:10.37,2013-07-14 19:50:00,
2013-07-14 21:55:00,77.4,68.9,29.96,WNW,285,0.0,4.0,75,0.00,,,0.00,0.0,WeatherDisplay:10.37,2013-07-14 19:55:00,
2013-07-14 22:05:00,77.3,69.1,29.97,West,274,0.0,6.0,76,0.00,,,0.00,0.0,WeatherDisplay:10.37,2013-07-14 20:05:00,
2013-07-14 22:10:00,77.1,68.9,29.97,West,275,2.0,7.0,76,0.00,,,0.00,0.0,WeatherDisplay:10.37,2013-07-14 20:10:00,
2013-07-14 22:15:00,77.1,69.3,29.97,West,276,0.0,5.0,77,0.00,,,0.00,0.0,WeatherDisplay:10.37,2013-07-14 20:15:00,
2013-07-14 22:20:00,76.9,69.1,29.98,NW,308,1.0,3.0,77,0.00,,,0.00,0.0,WeatherDisplay:10.37,2013-07-14 20:20:00,
2013-07-14 22:25:00,76.6,68.9,29.98,ENE,58,0.0,2.0,77,0.00,,,0.00,0.0,WeatherDisplay:10.37,2013-07-14 20:25:00,
2013-07-14 22:30:00,76.7,68.9,29.98,ENE,59,0.0,0.0,77,0.00,,,0.00,0.0,WeatherDisplay:10.37,2013-07-14 20:30:00,
2013-07-14 22:35:00,76.8,69.1,29.97,ENE,59,0.0,0.0,77,0.00,,,0.00,0.0,WeatherDisplay:10.37,2013-07-14 20:35:00,
2013-07-14 22:40:00,76.9,69.1,29.98,ENE,59,0.0,0.0,77,0.00,,,0.00,0.0,WeatherDisplay:10.37,2013-07-14 20:40:00,
2013-07-14 22:50:00,76.9,69.1,29.98,ENE,59,0.0,0.0,77,0.00,,,0.00,0.0,WeatherDisplay:10.37,2013-07-14 20:50:00,
2013-07-14 22:55:00,76.8,69.0,29.98,ENE,59,0.0,3.0,77,0.00,,,0.00,0.0,WeatherDisplay:10.37,2013-07-14 20:55:00,
2013-07-14 23:00:00,76.8,69.4,29.98,NE,48,0.0,4.0,78,0.00,,,0.00,0.0,WeatherDisplay:10.37,2013-07-14 21:00:00,
2013-07-14 23:10:00,76.3,69.0,29.99,SSW,209,0.0,3.0,78,0.00,,,0.00,0.0,WeatherDisplay:10.37,2013-07-14 21:10:00,
2013-07-14 23:15:00,75.4,68.5,29.99,South,170,5.0,9.0,79,0.00,,,0.00,0.0,WeatherDisplay:10.37,2013-07-14 21:15:00,
2013-07-14 23:20:00,75.1,68.2,29.99,SSE,168,3.0,8.0,79,0.00,,,0.00,0.0,WeatherDisplay:10.37,2013-07-14 21:20:00,
2013-07-14 23:30:00,75.3,68.3,29.99,South,186,3.0,8.0,79,0.00,,,0.00,0.0,WeatherDisplay:10.37,2013-07-14 21:30:00,
2013-07-14 23:35:00,75.4,68.4,29.99,South,184,3.0,8.0,79,0.00,,,0.00,0.0,WeatherDisplay:10.37,2013-07-14 21:35:00,
2013-07-14 23:45:00,75.6,68.6,29.99,South,173,2.0,7.0,79,0.00,,,0.00,0.0,WeatherDisplay:10.37,2013-07-14 21:45:00,
2013-07-14 23:55:00,75.5,68.5,29.99,South,174,5.0,9.0,79,0.00,,,0.00,0.0,WeatherDisplay:10.37,2013-07-14 21:55:00,